Home   Weather   41°58'N, 87°56'W   Past weeks
Flag for USA

Past Weather in 41°58'N, 87°56'W, USA — Yesterday and Last 2 Weeks

Now
50 °F

Passing clouds.


Feels Like: 48 °F
Forecast: 58 / 47 °F
Wind: 6 mph from South

Location: Chicago Midway Airport

Current Time: Oct 14, 2019 at 11:12:32 pm

Latest Report: Oct 14, 2019 at 9:53 pm


Visibility: 10 mi

Pressure: 30.06 "Hg

Humidity: 54%

Dew Point: 34 °F

Location of 41°58'N, 87°56'WLocation

Past Weather in 41°58'N, 87°56'W — Graph

°F

41°58'N, 87°56'W Temperature Yesterday

Maximum temperature yesterday: 55 °F (at 1:53 pm)
Minimum temperature yesterday: 39 °F (at 6:53 am)
Average temperature yesterday: 47 °F

High & Low Weather Summary for the Past Weeks

 TemperatureHumidityPressure
High88 °F (Oct 1, 2:53 pm)100% (Sep 30, 12:53 am)30.39 "Hg (Sep 30, 12:53 am)
Low37 °F (Oct 12, 5:53 am)31% (Oct 7, 2:53 pm)29.80 "Hg (Oct 11, 9:53 am)
Average60 °F69%30.03 "Hg
* Reported Sep 29 9:14 pm — Oct 14 9:53 pm, 41°58'N, 87°56'W. Weather by CustomWeather, © 2019

Note: Actual official high and low records may vary slightly from our data, if they occured in-between our weather recording intervals... More about our weather records

Advertising

41°58'N, 87°56'W Weather History for the Previous 24 Hours

Scroll right to see more
 ConditionsComfort  
Time TempWeatherWind HumidityBarometerVisibility
9:53 pm
Mon, Oct 14
50 °FPassing clouds.6 mph54%30.06 "Hg10 mi
8:53 pm50 °FClear.6 mph54%30.06 "Hg10 mi
7:53 pm51 °FClear.3 mph50%30.07 "Hg10 mi
6:53 pm51 °FPassing clouds.3 mph50%30.07 "Hg10 mi
5:53 pm52 °FPartly sunny.7 mph47%30.07 "Hg10 mi
4:53 pm54 °FPartly sunny.10 mph45%30.07 "Hg10 mi
3:53 pm55 °FPartly sunny.7 mph45%30.07 "Hg10 mi
2:53 pm54 °FScattered clouds.13 mph45%30.07 "Hg10 mi
1:53 pm52 °FPassing clouds.6 mph47%30.08 "Hg10 mi
12:53 pm51 °FPassing clouds.10 mph48%30.10 "Hg10 mi
11:53 am49 °FPassing clouds.12 mph48%30.11 "Hg10 mi
10:53 am47 °FPassing clouds.10 mph52%30.11 "Hg10 mi
9:53 am46 °FPassing clouds.9 mph58%30.11 "Hg10 mi
8:53 am43 °FPassing clouds.10 mph65%30.10 "Hg10 mi
7:53 am40 °FPassing clouds.7 mph73%30.08 "Hg10 mi
6:53 am40 °FPassing clouds.7 mph70%30.06 "Hg10 mi
5:53 am39 °FClear.6 mph73%30.04 "Hg10 mi
4:53 am40 °FClear.7 mph70%30.03 "Hg10 mi
3:53 am41 °FClear.7 mph67%30.00 "Hg10 mi
2:53 am42 °FPassing clouds.8 mph65%29.99 "Hg10 mi
1:53 am43 °FPassing clouds.8 mph60%29.99 "Hg10 mi
12:53 am45 °FPassing clouds.9 mph58%29.97 "Hg10 mi
11:53 pm
Sun, Oct 13
45 °FOvercast.7 mph58%29.96 "Hg10 mi
Weather by CustomWeather, © 2019

See weather overview